Other Public Products
Issued by NWS Grand Forks, ND

Home | Current Version | Previous Version | Graphics & Text | Print | Product List | Glossary On
Versions: 1 2 3 4 5 6 7 8 9 10 11 12 13 14 15 16 17 18 19 20 21 22 23 24 25 26 27 28 29 30 31 32 33 34 35 36 37 38 39 40 41 42 43 44 45 46 47 48 49 50
000
FPUS83 KFGF 012110
OPUFGF
PRAIRIE TO PINES WEATHER ROUNDUP
NATIONAL WEATHER SERVICE EASTERN NORTH DAKOTA/GRAND FORKS ND
400 PM CDT TUE SEP 01 2015

 **SATELLITE DATA USED TO AUGMENT SKY COVER AT AUTOMATED STATIONS**
 *****  WEATHER ACROSS EASTERN NORTH DAKOTA  *****

CITY           SKY/WX    TMP DP  RH WIND       PRES   REMARKS
GRAND FORKS    SUNNY     86  54  33 S9G18     29.82F
GRAND FORKS AF SUNNY     87  55  34 S13       29.83F
GRAND CITY NWS   N/A     88 N/A N/A SW10        N/A
BUXTON         NOT AVBL
DEVILS LAKE    SUNNY     86  52  30 SE14      29.82F
FARGO          SUNNY     90  49  24 SE13      29.83F
WAHPETON ARPT  MOCLDY    86  59  39 SE9       29.84F
$$

 *****  WEATHER ACROSS CENTRAL AND WESTERN NORTH DAKOTA  *****

CITY           SKY/WX    TMP DP  RH WIND       PRES   REMARKS
JAMESTOWN      SUNNY     86  61  42 SE12      29.83F
BISMARCK       SUNNY     88  61  40 SE12G20   29.80F
MINOT          SUNNY     88  56  33 S10G21    29.77F
MINOT AFB      NOT AVBL
GARRISON         N/A     88  56  33 S12       29.79F
WILLISTON      SUNNY     93  48  21 SW14      29.74F
DICKINSON      SUNNY     88  57  34 SE12      29.79F
HETTINGER      SUNNY     87  57  35 SE13      29.82F
$$

 *****  OTHER OBSERVATIONS NORTHEAST NORTH DAKOTA  *****

CITY           SKY/WX    TMP DP  RH WIND       PRES   REMARKS
WALHALLA       FAIR      88  50  27 MISG      29.79S
LANGDON        FAIR      88  48  25 SW16G24   29.84S
CAVALIER       FAIR      86  54  32 SW12      29.80S
GRAFTON        FAIR      86  55  35 S8G17     29.82F
CANDO          NOT AVBL
FORT TOTTEN      N/A     85  50  29 S10       29.95
ROLLA            N/A     84  54  34 S12G23    29.82F
RUGBY          FAIR      86  54  32 S10G18    29.79F
 ***** THE ABOVE OBSERVATIONS ARE NON NWS ARE NOT QUALITY
        CONTROLLED AND MAY MIS-REPORT RAIN FOR SNOW...
$$

 *****  OTHER OBSERVATIONS SOUTHEAST NORTH DAKOTA *****

CITY           SKY/WX    TMP DP  RH WIND       PRES   REMARKS
COOPERSTOWN    NOT AVBL
VALLEY CITY    FAIR      84  59  42 SE13G20   29.85F
OAKES            N/A     86  82  89 E9        29.81F HX 105
GWINNER        FAIR      88  70  55 E9        29.82F HX  92
SHEYENNE NWR     N/A     87  62  43 SE9       29.95S
BUFFALO        NOT AVBL
WYNDMERE         N/A     86  66  51 E8          N/A
 ***** THE ABOVE OBSERVATIONS ARE NON NWS ARE NOT QUALITY
       CONTROLLED AND MAY MIS-REPORT RAIN FOR SNOW...
$$

  *****  WEATHER ACROSS NORTHERN MINNESOTA  *****

CITY           SKY/WX    TMP DP  RH WIND       PRES   REMARKS
FLAG ISLAND    SUNNY     73  57  56 SE9       29.84F
WARROAD        SUNNY     82  57  42 SW6       29.86S
ROSEAU         SUNNY     84  54  34 SW9       29.85S
HALLOCK        SUNNY     86  52  30 SW15      29.81S
THF RVR FALLS  SUNNY     84  52  32 S8        29.86S
HALSTAD        NOT AVBL
FOSSTON        SUNNY     88  48  25 SE6       29.89S
BAUDETTE       SUNNY     83  49  30 W5        29.86F
WASKISH        SUNNY     81  57  44 W3        29.89S
CROOKSTON      SUNNY     86  50  28 SW9       29.85F
$$
  *****  WEATHER ACROSS CENTRAL AND WEST MINNESOTA  *****

CITY           SKY/WX    TMP DP  RH WIND       PRES   REMARKS
BEMIDJI        SUNNY     83  53  34 S3        29.90S
PARK RAPIDS    MOSUNNY   86  50  28 S7        29.91R
WADENA         PTSUNNY   82  57  42 SE7       29.90F
DETROIT LAKES  MOSUNNY   84  50  30 S8        29.90F
MOORHEAD       SUNNY     90  48  24 SE7       29.85F
FERGUS FALLS   PTSUNNY   82  63  51 SE6       29.85F
ELBOW LAKE     FAIR      81  71  70 SE9       29.86F
MORRIS MN      CLOUDY    81  73  78 E9        29.84F
STAPLES        PTSUNNY   82  57  42 SE3       29.90F
WHEATON        CLOUDY    81  72  74 E8        29.84F
$$
  *****  WEATHER ELSEWHERE ACROSS MINNESOTA  *****

CITY           SKY/WX    TMP DP  RH WIND       PRES   REMARKS
DULUTH         MOSUNNY   83  64  52 SW7       29.91S
INTRNTL FALLS  SUNNY     81  51  35 VRB3      29.88F
ELY            SUNNY     79  46  31 W8        29.92S
CLOQUET        MOSUNNY   82  61  47 SW3       29.91S
BRAINERD       PTSUNNY   82  60  47 CALM      29.91S
HIBBING        SUNNY     83  49  30 CALM      29.91S
ALEXANDRIA     CLOUDY    81  71  71 SE8       29.90F
SAINT CLOUD    CLOUDY    83  71  67 S7        29.89S
MINNEAPOLIS    CLOUDY    84  73  69 S6        29.89S HX  90
$$

  *****  WEATHER ACROSS SOUTH DAKOTA  *****

CITY           SKY/WX    TMP DP  RH WIND       PRES   REMARKS
SIOUX FALLS    CLOUDY    78  69  73 SE10      29.87F
BROOKINGS      CLOUDY    77  66  69 SE10      29.88R
WATERTOWN      CLOUDY    80  67  64 SW5       29.85S
HURON          CLOUDY    83  69  62 SE13G22   29.82F
SISSETON         N/A     85  70  60 SE8       29.81F
ABERDEEN       MOSUNNY   85  71  63 S14       29.82R HX  90
MITCHELL       CLOUDY    79  74  84 E7        29.82F
PIERRE         SUNNY     93  61  34 S20G28    29.76F HX  93
MOBRIDGE       SUNNY     90  67  46 S14       29.76F HX  93
RAPID CITY     SUNNY     85  61  44 N8        29.85F
$$

  *****  SOME WEATHER IN NEARBY STATES *****

CITY           SKY/WX    TMP DP  RH WIND       PRES   REMARKS
GLASGOW MT     SUNNY     87  39  18 SW9G21    29.75S
GREAT FALLS MT MOSUNNY   82  32  16 SW20G31   29.82S
CHEYENNE WY    MOSUNNY   84  31  14 N12G23    30.09F
SCOTTSBLUFF NE SUNNY     93  41  16 VRB5      29.92F
OMAHA NE       PTSUNNY   88  71  57 S15       29.91F HX  94
DES MOINES IA  CLOUDY    89  71  55 S10       29.95F HX  95
DAVENPORT IA   SUNNY     89  72  56 SW12      29.99F HX  96
CHICAGO IL     MOSUNNY   87  72  60 SW12G21   29.99F HX  93
EAU CLAIRE WI  PTSUNNY   86  72  62 SW7       29.90F HX  92
LA CROSSE WI   MOSUNNY   90  73  57 S12       29.90F HX  98
$$

  *****  SOME NATIONAL WEATHER *****

CITY           SKY/WX    TMP DP  RH WIND       PRES   REMARKS
LA GUARDIA NY  MOSUNNY   85  63  47 CALM      30.00F
RALEIGH NC     PTSUNNY   89  65  44 NE3       30.05F HX  91
ATLANTA GA     PTSUNNY   86  66  51 E6        30.10F
NEW ORLEANS LA PTSUNNY   88  67  49 S8        30.02F HX  91
OKLAHOMA CITY  MOSUNNY   92  65  40 SE17G24   29.98F HX  94
ALBUQUERQUE NM PTSUNNY   88  44  21 W8        30.15F
SALT LAKE CITY MOSUNNY   89  40  17 S22G28    29.92F
LOS ANGELES CA PTSUNNY   76  62  62 SW14G20   29.91S
BOISE ID       MOSUNNY   83  41  22 NW7       29.85F
SEATTLE WA     CLOUDY    65  57  75 SW20G25   29.84F
$$

*** WEATHER ACROSS MANITOBA...SASKATCHEWAN AND ONTARIO ***
                ***ONTARIO***

CITY           SKY/WX    TMP DP  RH WIND       PRES   REMARKS
GERALDTON      PTSUNNY   79  55  44 W9G17     29.84R
THUNDER BAY    PTSUNNY   82  61  47 W9        29.85S
SIOUX LOOKOUT  MOSUNNY   81  50  34 W10G18    29.85F
TORONTO        SUNNY     84  68  58 S8        30.01F
BIG TROUT LK   SUNNY     72  61  68 N7        29.74R
PICKLE LAKE    MOSUNNY   81  50  34 W12G20    29.79S
DRYDEN         SUNNY     81  43  26 W14G22    29.86F
KENORA         MOSUNNY   79  50  36 SW10      29.87S
$$
                *** MANITOBA***

CITY           SKY/WX    TMP DP  RH WIND       PRES   REMARKS
BRANDON        MOSUNNY   88  50  27 SW13      29.76F
DAUPHIN        SUNNY     84  52  32 SW9       29.72F
ISLAND LAKE    PTSUNNY   79  61  53 SE5       29.71F
PILOT MOUND      N/A     88  50  27 SW14G22     N/A
THE PAS        MOSUNNY   79  52  38 S10G17    29.62F
THOMPSON       PTSUNNY   68  59  73 E5        29.71F
WINNIPEG       MOSUNNY   86  50  28 SE8       29.79F
GILLAM         PTSUNNY   57  50  77 NE5       29.77
$$
                ***SASKATCHEWAN***

CITY           SKY/WX    TMP DP  RH WIND       PRES   REMARKS
ESTEVAN        MOSUNNY   90  48  24 S17G29    29.73F
KINDERSLEY     MOSUNNY   77  37  24 NW13G21   29.67R
LLOYDMINSTER   PTSUNNY   70  39  32 W16G23    29.65R
PRINCE ALBERT  MOSUNNY   77  46  33 W15G22    29.59R
REGINA         PTSUNNY   81  43  26 W18G25    29.71R
YORKTON        SUNNY     81  45  28 SW13G21   29.70F
N. BATTLEFORD  SUNNY     77  39  25 W16G24    29.64R


USA.gov is the U.S. government's official web portal to all federal, state and local government web resources and services.